User: anonymous   Login
Location: Albany
(35.0000°S, 118.0000°E)
Time: 08:57:44
(UTC-04:00)
Language:

Centaur D-1AR AC-48 - Orbit

View from above orbital plane
View from above orbital plane
View from above satellite
View from above satellite

Ground track
Ground track

The orbit data is extracted from the following two-line orbital elements,

1 10779U 78035B   14301.79399910 -.00000087  00000-0  91293-3 0  9727
2 10779 021.6900 042.9656 7179299 140.2376 006.0398 02.22637888297250
Epoch (UTC): 28 October 2014 19:03:21
Eccentricity: 0.7179299
inclination: 21.6900°
perigee height: 610 km
apogee height: 36182 km
right ascension of ascending node: 42.9656°
argument of perigee: 140.2376°
revolutions per day: 2.22637888
mean anomaly at epoch: 6.0398°
orbit number at epoch: 29725

The dashed part of the orbit path shows where the satellite is in the earth's shadow,  

DLR